Home > Weather > Guelph > Past weeks

Flag for Canada Weather for the Past 2 Weeks in Guelph, Ontario, Canada

Now
55 °F

Passing clouds.


Feels Like: 52 °F
Forecast: 34 / 57 °F
Wind: 14 mph from East

Location: Waterloo Well

Current Time: Apr 30, 2016 at 12:59:58 PM

Latest Report: Apr 30, 2016 at 12:00 PM


Visibility: 9 mi

Pressure: 30.18 "Hg

Humidity: 47%

Dew Point: 36 °F

Location of GuelphLocation

Historic Weather in Guelph — Graph

°F

Guelph Temperature Yesterday

Maximum temperature yesterday: 52 °F (at 3:00 PM)
Minimum temperature yesterday: 39 °F (at 2:00 AM)
Average temperature yesterday: 44 °F

High & Low Weather Summary for the Past Weeks

 TemperatureHumidityPressure
High77 °F (Apr 18, 2:00 PM)100% (Apr 18, 6:00 AM)30.49 "Hg (Apr 18, 6:00 AM)
Low28 °F (Apr 27, 5:00 AM)20% (Apr 17, 5:03 PM)29.71 "Hg (Apr 26, 4:00 AM)
Average48 °F59%30.14 "Hg
* Reported Apr 15 12:00 Noon — Apr 30 12:00 Noon, Guelph, Weather by CustomWeather, © 2016

Note: Actual official high and low records may vary slightly from our data, if they occured in-between our weather recording intervals... More about our weather records

Advertising

Guelph Weather History for the Previous 24 Hours

Scroll right to see more
 ConditionsComfort  
Time TempWeatherWind HumidityBarometerVisibility
12:00 PM
Sat, Apr 30
55 °FPassing clouds.14 mph47%30.18 "Hg9 mi
11:00 AM52 °FOvercast.13 mph58%30.20 "Hg9 mi
10:00 AM52 °FPartly sunny.15 mph54%30.21 "Hg9 mi
9:00 AM50 °FSunny.10 mph47%30.21 "Hg9 mi
8:00 AM43 °FSunny.7 mph61%30.20 "Hg9 mi
7:00 AM32 °FClear.2 mph87%30.20 "Hg9 mi
6:00 AM32 °FClear.3 mph93%30.20 "Hg9 mi
5:00 AM34 °FClear.6 mph81%30.19 "Hg8 mi
4:00 AM34 °FClear.3 mph75%30.19 "Hg9 mi
3:01 AM37 °FClear.7 mph70%30.17 "Hg5 mi
2:00 AM36 °FClear.5 mph81%30.19 "Hg9 mi
1:00 AM34 °FClear.3 mph87%30.18 "Hg9 mi
12:00 AM37 °FClear.2 mph75%30.19 "Hg9 mi
11:00 PM
Fri, Apr 29
43 °FOvercast.2 mph61%30.19 "Hg9 mi
10:00 PM41 °FPassing clouds.5 mph61%30.17 "Hg9 mi
9:00 PM45 °FScattered clouds.5 mph57%30.14 "Hg9 mi
8:00 PM48 °FOvercast.5 mph50%30.13 "Hg9 mi
7:00 PM50 °FMostly cloudy.7 mph43%30.09 "Hg9 mi
6:00 PM52 °FOvercast.2 mph41%30.09 "Hg9 mi
5:00 PM52 °FMostly cloudy.6 mph41%30.07 "Hg9 mi
4:00 PM52 °FMostly cloudy.9 mph41%30.07 "Hg9 mi
3:00 PM52 °FMostly cloudy.10 mph35%30.09 "Hg9 mi
2:00 PM48 °FOvercast.9 mph40%30.08 "Hg9 mi
1:00 PM50 °FOvercast.12 mph37%30.06 "Hg9 mi
12:00 PM46 °FOvercast.7 mph40%30.09 "Hg9 mi
Weather by CustomWeather, © 2016

See weather overviewHow to use our weather pages